[[[{"header":{"parameterUnit":"kt","parameterCategory":2,"dx":1,"dy":1,"la1":30.253999710083008,"la2":30.299108505249023,"lo1":-89.0895004272461,"lo2":-89.04439544677734,"nx":28,"ny":28,"refTime":"2022-10-04T21:00:00:Z","depth":0,"parameterNumber":1,"parameterNumberName":"U-component_of_WINDS"},"data":[0.7546,0.7488,0.7485,0.7417,0.7402,0.7353,0.7334,0.7309,0.7288,0.7228,0.7192,0.718,0.7155,0.7109,0.7068,0.7063,0.7044,0.7026,0.7023,0.7111,0.7122,0.7133,0.7146,0.7023,0.7023,0.6931,0.693,0.6929,0.7608,0.7593,0.7557,0.752,0.7488,0.7503,0.7473,0.7444,0.74,0.7373,0.7338,0.7284,0.724,0.722,0.7176,0.7145,0.7148,0.7133,0.7133,0.7128,0.7223,0.7237,0.7132,0.7132,0.7132,0.7132,0.7132,0.7132,0.7719,0.7685,0.7661,0.7622,0.7602,0.7576,0.7542,0.753,0.7493,0.7449,0.7452,0.74,0.7371,0.7316,0.7296,0.7253,0.7268,0.725,0.7244,0.7238,0.7232,0.7359,0.7246,0.7246,0.7247,0.7247,0.7247,0,0.7799,0.7799,0.7764,0.7728,0.7699,0.7671,0.7644,0.7623,0.7619,0.7588,0.7542,0.7515,0.746,0.7414,0.7372,0.7355,0.7363,0.7365,0.7351,0.7347,0.7348,0.7343,0.7494,0.7367,0.7368,0.7369,0.737,0.737,0.7907,0.787,0.7843,0.7819,0.7804,0.7765,0.7741,0.7741,0.7715,0.768,0.7648,0.7605,0.7569,0.7495,0.7478,0.7436,0.7439,0.739,0.7432,0.743,0.7433,0.7433,0.7428,0.7381,0.738,0.7378,0.7378,0,0.7968,0.7964,0.7904,0.7882,0.7875,0.7834,0.7813,0.7778,0.7771,0.7721,0.771,0.7696,0.765,0.7642,0.7588,0.7585,0.7511,0.7517,0.752,0.7519,0.7472,0.7475,0.7329,0.7308,0.744,0.7439,0.7438,0,0.8057,0.8007,0.8003,0.7969,0.7913,0.7915,0.7858,0.7846,0.7824,0.7785,0.7797,0.7759,0.7755,0.7716,0.7711,0.765,0.7641,0.7633,0.7631,0.763,0.763,0.7611,0.7615,0.7635,0.7636,0.7636,0.7637,0,0.8149,0.8091,0.8035,0.8021,0.7991,0.7964,0.795,0.7925,0.7901,0.7868,0.7852,0.7813,0.7791,0.776,0.7754,0.7782,0.768,0.7718,0.7671,0.7671,0.7646,0.7647,0.7523,0.7638,0.7638,0.7638,0.7639,0,0.8219,0.819,0.8112,0.8087,0.8071,0.8034,0.7997,0.7965,0.7937,0.7932,0.7906,0.7912,0.7861,0.7898,0.7827,0.7865,0.7841,0.783,0.7827,0.7818,0.7859,0.7785,0.7672,0.7657,0.7814,0.7816,0.7817,0,0.8324,0.8245,0.8247,0.8172,0.8134,0.8149,0.8109,0.8085,0.8075,0.804,0.8029,0.7988,0.8014,0.8,0.7966,0.7952,0.7902,0.7959,0.79,0.7898,0.7904,0.78,0.7784,0.7698,0.7836,0.7834,0.7833,0,0.8405,0.8372,0.8359,0.8341,0.8312,0.8281,0.8235,0.8196,0.8172,0.8145,0.8103,0.8048,0.8064,0.8041,0.8041,0.8006,0.7936,0.8028,0.8027,0.8008,0.7846,0.783,0.7816,0.7943,0.7941,0.7939,0.7848,0,0.8505,0.8466,0.8431,0.8395,0.837,0.8324,0.8318,0.8293,0.8296,0.8287,0.8228,0.8206,0.8165,0.8149,0.8151,0.8076,0.8086,0.8104,0.8136,0.8071,0.8039,0.8027,0.8183,0.8184,0.8185,0.8185,0,0,0.8604,0.8548,0.8552,0.8509,0.8487,0.8505,0.8455,0.8436,0.8398,0.8381,0.8401,0.8318,0.8299,0.8227,0.8206,0.819,0.8174,0.8198,0.8103,0.8094,0.8085,0.8053,0.804,0.8187,0.8187,0.8187,0.8187,0,0.8639,0.8625,0.8578,0.8559,0.8532,0.8526,0.8515,0.849,0.8482,0.8426,0.8438,0.8401,0.8337,0.8313,0.8293,0.8208,0.8217,0.8197,0.8152,0.8111,0.8101,0.8092,0.8058,0.8046,0.8189,0.8189,0.8189,0,0.8714,0.8698,0.8675,0.8632,0.8613,0.8574,0.8608,0.8567,0.8537,0.8555,0.8498,0.8485,0.8454,0.8389,0.8359,0.8375,0.8256,0.8294,0.8288,0.8284,0.8244,0.8232,0.8221,0.8362,0.8363,0.8364,0,0,0.8745,0.871,0.8691,0.8639,0.8627,0.8617,0.8596,0.8598,0.8572,0.8562,0.8544,0.8517,0.8479,0.8453,0.8417,0.8348,0.8339,0.8315,0.8307,0.83,0.8292,0.825,0.8238,0.8366,0.8366,0.8366,0,0,0.8758,0.8736,0.8745,0.8684,0.866,0.8637,0.8603,0.8613,0.8581,0.8585,0.8583,0.8576,0.8515,0.8501,0.8535,0.8428,0.8461,0.8453,0.8439,0.8428,0.842,0.8423,0.8563,0,0,0,0,0,0.8791,0.8739,0.8748,0.8737,0.868,0.8633,0.8625,0.8624,0.8647,0.8621,0.8608,0.862,0.8519,0.8548,0.8536,0.8498,0.8397,0.8391,0.8386,0.8352,0.8341,0.8332,0,0,0,0,0,0,0.8787,0.8774,0.8749,0.8724,0.8711,0.8635,0.8673,0.8671,0.865,0.8653,0.8622,0.8619,0.8616,0.8554,0.8543,0.8507,0.8567,0.8395,0.839,0.8386,0.8348,0.8339,0.8332,0,0,0,0,0,0.8783,0.8773,0.8684,0.8724,0.8713,0.87,0.8675,0.8674,0.8657,0.8637,0.8634,0.8658,0.8615,0.8606,0.8547,0.8512,0.8575,0.8571,0.8392,0.8388,0.8385,0.8344,0,0,0,0,0,0,0.8781,0.877,0.8681,0.8678,0.8745,0.8704,0.8698,0.8676,0.8642,0.8639,0.8673,0.8676,0.8614,0.8607,0.8599,0.8514,0.8581,0.8577,0.8574,0.8389,0.8386,0.8384,0,0,0,0,0,0,0.8776,0.8767,0.8679,0.8705,0.8704,0.8708,0.8702,0.8653,0.8641,0.868,0.8681,0.8675,0.8624,0.8607,0.8601,0.8524,0.8586,0.8582,0.8579,0.8577,0.8387,0.8384,0,0,0,0,0,0,0.8772,0.8765,0.8706,0.8705,0.8705,0.8665,0.8664,0.8606,0.8666,0.8681,0.8671,0.8673,0.8624,0.8618,0.8603,0.8528,0.8525,0.8586,0.8583,0.8581,0.858,0,0,0,0,0,0,0,0.8769,0.8821,0.8702,0.8706,0.8705,0.8645,0.8644,0.8643,0.8666,0.8668,0.867,0.8672,0.8608,0.8604,0.86,0.8531,0,0,0.8586,0.8584,0,0,0,0,0,0,0,0,0.8824,0.8822,0.8702,0.8702,0.8701,0.8645,0.8644,0.8644,0.8667,0.8668,0.867,0.8671,0.8607,0.8604,0.86,0,0,0,0,0,0,0,0,0,0,0,0,0,0,0,0.8702,0.8702,0,0.8645,0.8644,0.8644,0.8667,0.8668,0.867,0.8671,0.8606,0.8603,0.86,0,0,0,0,0,0,0,0,0,0,0,0,0,0,0,0,0,0,0,0,0,0,0,0,0,0,0,0,0,0,0,0,0,0,0,0,0,0,0,0,0,0,0,0,0,0,0,0,0,0,0,0,0,0,0,0,0,0,0,0,0,0,0,0,0,0,0,0,0]}],[{"header":{"parameterUnit":"kt","parameterCategory":2,"dx":1,"dy":1,"la1":30.253999710083008,"la2":30.299108505249023,"lo1":-89.0895004272461,"lo2":-89.04439544677734,"nx":28,"ny":28,"refTime":"2022-10-04T21:00:00:Z","depth":0,"parameterNumber":2,"parameterNumberName":"V-component_of_WINDS"},"data":[1.8716,1.8677,1.8669,1.8619,1.8603,1.8566,1.8549,1.8527,1.8506,1.8458,1.8428,1.8412,1.8385,1.8344,1.8309,1.8301,1.8286,1.8279,1.8271,1.8316,1.8321,1.8326,1.8335,1.8277,1.8277,1.8226,1.8226,1.8225,1.875,1.8735,1.8707,1.8673,1.8648,1.8651,1.8623,1.86,1.8566,1.8539,1.851,1.8465,1.8427,1.8401,1.8362,1.8339,1.8336,1.8329,1.8329,1.8324,1.8372,1.8382,1.8332,1.8332,1.8332,1.8333,1.8333,1.8333,1.881,1.8786,1.8762,1.873,1.8711,1.8688,1.8662,1.8646,1.8615,1.8576,1.857,1.8529,1.8498,1.8445,1.8423,1.8389,1.8394,1.8382,1.8378,1.8375,1.8373,1.8444,1.8382,1.8382,1.8382,1.8382,1.8382,0,1.885,1.8845,1.8817,1.8787,1.8763,1.8737,1.8712,1.8696,1.8678,1.8653,1.8615,1.8591,1.8542,1.8502,1.8463,1.8442,1.8437,1.8436,1.8427,1.8429,1.8436,1.843,1.8506,1.8436,1.8437,1.8437,1.8437,1.8438,1.8907,1.8881,1.8851,1.8832,1.8816,1.8786,1.8765,1.8752,1.8729,1.8694,1.8671,1.8633,1.8602,1.8539,1.8514,1.8476,1.8472,1.8447,1.8466,1.847,1.8469,1.847,1.8466,1.8442,1.8441,1.8441,1.8441,0,1.894,1.8926,1.8883,1.8854,1.8846,1.8818,1.8792,1.8766,1.8752,1.8713,1.8703,1.8678,1.8639,1.8619,1.8569,1.8559,1.8507,1.8505,1.8518,1.8515,1.8489,1.8491,1.8411,1.8399,1.8462,1.8461,1.8461,0,1.8982,1.8948,1.8929,1.8904,1.8865,1.8853,1.8813,1.8797,1.8771,1.8741,1.8735,1.8706,1.8684,1.8651,1.8636,1.859,1.8581,1.8569,1.8565,1.8569,1.857,1.8553,1.8554,1.856,1.856,1.856,1.8561,0,1.9033,1.8983,1.8943,1.8929,1.8893,1.8874,1.8858,1.8829,1.8808,1.8776,1.8762,1.8725,1.8704,1.8675,1.8656,1.867,1.86,1.8614,1.8588,1.8588,1.8571,1.8572,1.8509,1.8561,1.8561,1.8562,1.8562,0,1.9064,1.9037,1.8982,1.8952,1.8939,1.8911,1.8877,1.8849,1.8819,1.8809,1.8783,1.8775,1.8735,1.8751,1.8694,1.8717,1.8696,1.8682,1.868,1.8672,1.869,1.8654,1.8599,1.8591,1.8669,1.867,1.867,0,1.9125,1.9066,1.9056,1.9002,1.8972,1.8968,1.8937,1.8911,1.8895,1.8865,1.8846,1.881,1.8818,1.8803,1.8778,1.8755,1.8725,1.8759,1.8709,1.8707,1.8716,1.8665,1.8661,1.8614,1.8682,1.868,1.868,0,1.917,1.913,1.9121,1.9104,1.907,1.9044,1.9009,1.8972,1.8953,1.8924,1.8891,1.8841,1.8844,1.882,1.8809,1.8784,1.8745,1.8789,1.8788,1.878,1.8686,1.8682,1.8675,1.8743,1.8741,1.874,1.8688,0,1.9217,1.9186,1.9163,1.9126,1.9103,1.9069,1.905,1.9028,1.9022,1.9005,1.8958,1.8929,1.8887,1.8874,1.8865,1.8815,1.8819,1.8823,1.8834,1.8802,1.8784,1.8777,1.8863,1.8863,1.8863,1.8863,0,0,1.9278,1.9233,1.9222,1.9189,1.9169,1.9165,1.9129,1.9109,1.9066,1.9051,1.9058,1.8982,1.8957,1.89,1.8889,1.8873,1.886,1.8872,1.8818,1.8813,1.8808,1.879,1.8783,1.8864,1.8864,1.8864,1.8864,0,1.9291,1.9273,1.924,1.9219,1.9188,1.9173,1.9165,1.9132,1.9119,1.9074,1.9068,1.9036,1.8975,1.8949,1.8928,1.888,1.8874,1.8869,1.885,1.8821,1.8815,1.8811,1.8792,1.8785,1.8864,1.8864,1.8864,0,1.9331,1.9309,1.9292,1.9248,1.9227,1.9195,1.9204,1.917,1.9145,1.9138,1.9092,1.9072,1.9035,1.8986,1.8962,1.8967,1.8888,1.8909,1.8907,1.8903,1.8874,1.8867,1.8862,1.8934,1.8934,1.8934,0,0,1.9345,1.9316,1.9287,1.925,1.9237,1.9214,1.9195,1.9186,1.9156,1.9144,1.9118,1.9087,1.9051,1.9027,1.8993,1.8941,1.893,1.8919,1.8915,1.8913,1.8907,1.8877,1.8871,1.8936,1.8936,1.8936,0,0,1.935,1.9316,1.9315,1.927,1.9244,1.921,1.9186,1.9184,1.9151,1.9152,1.9132,1.9122,1.9075,1.9055,1.9076,1.8995,1.9008,1.9002,1.901,1.9006,1.9002,1.9007,1.9077,0,0,0,0,0,1.9354,1.9321,1.9321,1.931,1.9253,1.9211,1.9203,1.9188,1.9197,1.9179,1.9157,1.9153,1.9062,1.908,1.9068,1.9044,1.8952,1.8949,1.8947,1.8945,1.894,1.8936,0,0,0,0,0,0,1.935,1.9338,1.9321,1.9287,1.9273,1.9212,1.9225,1.9219,1.9199,1.9199,1.9158,1.9152,1.9136,1.9084,1.9074,1.9052,1.9081,1.8951,1.8949,1.8946,1.8943,1.8939,1.8936,0,0,0,0,0,1.9347,1.9337,1.925,1.9287,1.9275,1.9247,1.9226,1.9222,1.9205,1.9171,1.9165,1.9196,1.9136,1.9126,1.9078,1.9057,1.9088,1.9084,1.895,1.8948,1.8946,1.8941,0,0,0,0,0,0,1.9344,1.9331,1.9247,1.9243,1.9299,1.925,1.9243,1.9223,1.9177,1.9171,1.9207,1.9208,1.9135,1.9127,1.912,1.906,1.9094,1.909,1.9087,1.8948,1.8947,1.8945,0,0,0,0,0,0,1.9336,1.9328,1.9245,1.9261,1.9258,1.9253,1.9246,1.9203,1.9176,1.9216,1.9215,1.9208,1.9145,1.9129,1.9123,1.9055,1.9098,1.9094,1.9092,1.909,1.8947,1.8946,0,0,0,0,0,0,1.9332,1.9325,1.9262,1.926,1.9258,1.9209,1.9214,1.9155,1.9194,1.9218,1.9197,1.9198,1.9146,1.914,1.9125,1.906,1.9056,1.9098,1.9095,1.9094,1.9092,0,0,0,0,0,0,0,1.9329,1.9384,1.9272,1.9259,1.9257,1.9204,1.9203,1.9202,1.9195,1.9196,1.9197,1.9198,1.9119,1.9115,1.9111,1.9064,0,0,1.9098,1.9096,0,0,0,0,0,0,0,0,1.9386,1.9384,1.9272,1.9271,1.927,1.9204,1.9203,1.9202,1.9195,1.9196,1.9197,1.9197,1.9118,1.9115,1.9112,0,0,0,0,0,0,0,0,0,0,0,0,0,0,0,1.9272,1.9271,0,1.9204,1.9203,1.9202,1.9195,1.9196,1.9196,1.9197,1.9117,1.9115,1.9112,0,0,0,0,0,0,0,0,0,0,0,0,0,0,0,0,0,0,0,0,0,0,0,0,0,0,0,0,0,0,0,0,0,0,0,0,0,0,0,0,0,0,0,0,0,0,0,0,0,0,0,0,0,0,0,0,0,0,0,0,0,0,0,0,0,0,0,0,0]}]]]